EA8CHC Sevilla ES current weather conditions

sailwx.info

Air temperature 23.3° C
Dewpoint 4.8° C

Last reported at 2019-Oct-16 17:57 UTC.
Time now 2019-Oct-17 07:39 UTC

Location: N 37°26' W 006°03'.
View on Google Maps.

See reports from other nearby stations

  
Tides and Currents Weather Stations Pressure Air Temp Water Temp Dewpoint Dewpoint Depression Visibility Wind Speed Wind Dir Waves Ship Positions
date/time (UTC)wind fromknots sea level pressurealtimeterstation pressurevisibilityair tempwater tempwave heightnotes
2019-Oct-16 17:57 23.3
2019-Oct-16 17:52 209 1 gusting 4 23.3
2019-Oct-16 17:47 209 1 gusting 4 23.3
2019-Oct-16 17:42 209 1 gusting 4 23.3
2019-Oct-16 17:37 231 2 gusting 4 23.3
2019-Oct-16 17:32 217 2 gusting 5 23.9
2019-Oct-16 17:27 213 2 gusting 6 23.9
2019-Oct-16 17:22 224 2 gusting 6 23.9
2019-Oct-16 17:17 228 3 gusting 6 23.9
2019-Oct-16 17:12 225 2 gusting 6 24.4
2019-Oct-16 17:07 231 1 gusting 6 24.4
2019-Oct-16 17:02 236 1 gusting 6 24.4
2019-Oct-16 16:57 217 0 gusting 6 24.4
2019-Oct-16 16:52 227 0 gusting 6 24.4
2019-Oct-16 16:47 238 1 gusting 6 24.4
2019-Oct-16 16:42 245 2 gusting 6 24.4
2019-Oct-16 16:37 213 1 gusting 5 24.4
2019-Oct-16 16:32 198 1 gusting 5 24.4
2019-Oct-16 16:27 194 1 gusting 5 24.4
2019-Oct-16 16:22 166 24.4
2019-Oct-16 16:17 306 0 gusting 5 24.4
2019-Oct-16 16:12 248 0 gusting 5 24.4
2019-Oct-16 16:07 259 0 gusting 4 24.4
2019-Oct-16 16:02 153 0 gusting 6 24.4
2019-Oct-16 15:57 165 1 gusting 6 23.9
2019-Oct-16 15:52 120 1 gusting 6 23.9
2019-Oct-16 15:47 164 1 gusting 4 23.9
2019-Oct-16 15:42 107 0 gusting 4 23.9
2019-Oct-16 15:37 112 1 gusting 6 23.9
2019-Oct-16 15:32 092 2 gusting 6 23.9
2019-Oct-16 15:27 106 1 gusting 6 24.4
2019-Oct-16 15:22 144 1 gusting 6 24.4
2019-Oct-16 15:17 263 1 gusting 6 24.4
2019-Oct-16 15:12 206 0 gusting 6 24.4
2019-Oct-16 15:07 205 1 gusting 6 24.4
2019-Oct-16 15:02 167 1 gusting 6 24.4
2019-Oct-16 14:57 161 0 gusting 3 24.4
2019-Oct-16 14:52 246 0 gusting 5 24.4
2019-Oct-16 14:47 265 0 gusting 5 23.9
2019-Oct-16 14:42 159 0 gusting 5 23.9
2019-Oct-16 14:37 176 0 gusting 4 23.9
2019-Oct-16 14:32 256 1 gusting 4 23.9
2019-Oct-16 14:27 234 0 gusting 5 23.3
2019-Oct-16 14:22 139 0 gusting 5 23.3
2019-Oct-16 14:17 153 0 gusting 5 23.3
2019-Oct-16 14:12 154 0 gusting 5 23.3
2019-Oct-16 14:07 106 0 gusting 5 23.3
2019-Oct-16 14:02 106 1 gusting 5 22.8
2019-Oct-16 13:57 078 1 gusting 5 22.8
2019-Oct-16 13:52 078 1 gusting 6 22.8
2019-Oct-16 13:47 078 2 gusting 6 22.8
2019-Oct-16 13:42 092 1 gusting 6 22.8
2019-Oct-16 13:37 091 0 gusting 5 22.8
2019-Oct-16 13:32 146 0 gusting 4 22.2
2019-Oct-16 13:27 313 1 gusting 4 22.2
2019-Oct-16 13:22 063 2 gusting 5 22.2
2019-Oct-16 13:17 055 1 gusting 5 22.2
2019-Oct-16 13:12 163 0 gusting 5 22.2
2019-Oct-16 13:07 065 1 gusting 5 22.2
2019-Oct-16 13:02 086 1 gusting 5 22.2
2019-Oct-16 12:57 090 0 gusting 5 22.2
2019-Oct-16 12:52 035 0 gusting 5 22.2
2019-Oct-16 12:47 036 1 gusting 5 21.7
2019-Oct-16 12:42 061 1 gusting 4 21.7
2019-Oct-16 12:37 089 2 gusting 4 21.7
2019-Oct-16 12:32 072 1 gusting 4 21.7
2019-Oct-16 12:27 067 1 gusting 4 21.7
2019-Oct-16 12:22 154 0 gusting 3 21.7
2019-Oct-16 12:17 101 0 gusting 4 21.1
2019-Oct-16 12:12 080 0 gusting 4 21.1
2019-Oct-16 12:07 080 0 gusting 5 21.1
2019-Oct-16 12:02 091 1 gusting 5 21.1
2019-Oct-16 11:57 117 2 gusting 5 21.1
2019-Oct-16 11:52 048 1 gusting 5 20.6
2019-Oct-16 11:47 052 1 gusting 5 20.6
2019-Oct-16 11:42 078 1 gusting 5 20.6
2019-Oct-16 11:37 078 0 gusting 4 20.6
2019-Oct-16 11:32 069 1 gusting 5 20.0
2019-Oct-16 11:27 054 1 gusting 6 20.0
2019-Oct-16 11:22 074 1 gusting 6 19.4
2019-Oct-16 11:17 088 2 gusting 6 19.4
2019-Oct-16 11:12 086 1 gusting 6 19.4
2019-Oct-16 11:07 081 1 gusting 5 19.4
2019-Oct-16 11:02 060 1 gusting 5 18.9
2019-Oct-16 10:57 056 2 gusting 5 18.9
2019-Oct-16 10:52 061 2 gusting 5 18.9
2019-Oct-16 10:47 050 2 gusting 5 18.3
2019-Oct-16 10:42 051 2 gusting 5 18.3
2019-Oct-16 10:37 048 2 gusting 5 18.3
2019-Oct-16 10:32 063 1 gusting 5 18.3
2019-Oct-16 10:27 075 1 gusting 5 17.8
2019-Oct-16 10:22 041 3 gusting 5 17.8
2019-Oct-16 10:17 046 2 gusting 5 17.8
2019-Oct-16 10:12 080 1 gusting 6 17.8
2019-Oct-16 10:07 071 2 gusting 6 17.8
2019-Oct-16 10:02 079 1 gusting 6 17.2
2019-Oct-16 09:57 060 1 gusting 6 17.2
2019-Oct-16 09:52 086 2 gusting 6 17.2
2019-Oct-16 09:47 070 3 gusting 6 16.7
2019-Oct-16 09:42 103 2 gusting 5 16.7
2019-Oct-16 09:37 094 1 gusting 5 16.1
2019-Oct-16 09:32 070 2 gusting 5 16.1
2019-Oct-16 09:27 057 2 gusting 4 15.6
2019-Oct-16 09:22 067 1 gusting 4 15.6
2019-Oct-16 09:17 078 1 gusting 4 15.6
2019-Oct-16 09:12 078 1 gusting 3 15.6
2019-Oct-16 09:07 082 0 gusting 3 15.0
2019-Oct-16 09:02 058 0 gusting 2 15.0
2019-Oct-16 08:57 067 0 gusting 4 14.4
2019-Oct-16 08:52 067 0 gusting 4 14.4
2019-Oct-16 08:47 067 0 gusting 4 13.9
2019-Oct-16 08:42 067 0 gusting 2 13.9
2019-Oct-16 08:37 072 0 gusting 3 13.9
2019-Oct-16 08:32 076 0 gusting 3 13.3
2019-Oct-16 08:27 078 0 gusting 3 13.3
2019-Oct-16 08:22 083 0 gusting 2 13.3
2019-Oct-16 08:17 083 0 gusting 2 12.8
2019-Oct-16 08:12 042 0 gusting 2 12.8
2019-Oct-16 08:07 042 1 12.8
2019-Oct-16 08:02 12.8
2019-Oct-15 17:57 21.1
2019-Oct-15 17:52 180 1 gusting 4 21.1
2019-Oct-15 17:47 180 1 gusting 4 21.1
2019-Oct-15 17:42 177 1 gusting 4 21.1
2019-Oct-15 17:37 173 1 gusting 4 21.1
2019-Oct-15 17:32 170 1 gusting 5 21.7
2019-Oct-15 17:27 163 1 gusting 5 21.7
2019-Oct-15 17:22 153 2 gusting 5 21.7
2019-Oct-15 17:17 157 2 gusting 6 21.7
2019-Oct-15 17:12 157 2 gusting 6 21.7
2019-Oct-15 17:07 159 2 gusting 6 21.7
2019-Oct-15 17:02 162 3 gusting 6 21.7
2019-Oct-15 16:57 190 2 gusting 6 21.7
2019-Oct-15 16:52 156 2 gusting 5 21.7
2019-Oct-15 16:47 105 2 gusting 5 21.7
2019-Oct-15 16:42 135 1 gusting 5 21.7
2019-Oct-15 16:37 138 2 gusting 6 21.7
2019-Oct-15 16:32 151 3 gusting 6 21.7
2019-Oct-15 16:27 098 3 gusting 5 21.7
2019-Oct-15 16:22 098 2 gusting 5 21.7
2019-Oct-15 16:17 109 0 gusting 4 21.7
2019-Oct-15 16:12 157 0 gusting 4 21.7
2019-Oct-15 16:07 146 0 gusting 6 21.7
2019-Oct-15 16:02 125 0 gusting 7 21.7
2019-Oct-15 15:57 124 1 gusting 7 21.7
2019-Oct-15 15:52 121 2 gusting 6 21.7
2019-Oct-15 15:47 144 2 gusting 6 21.7
2019-Oct-15 15:42 190 2 gusting 6 21.7
2019-Oct-15 15:37 147 1 gusting 6 21.7
2019-Oct-15 15:32 138 1 gusting 7 21.7
2019-Oct-15 15:27 097 2 gusting 7 21.7
2019-Oct-15 15:22 188 3 gusting 7 21.7
2019-Oct-15 15:17 074 3 gusting 7 21.7
2019-Oct-15 15:12 168 3 gusting 6 21.7
2019-Oct-15 15:07 117 1 gusting 6 21.7
2019-Oct-15 15:02 096 0 gusting 6 21.1
2019-Oct-15 14:57 096 2 gusting 6 21.1
2019-Oct-15 14:52 123 3 gusting 6 21.7
2019-Oct-15 14:47 135 2 gusting 6 21.7
2019-Oct-15 14:42 144 1 gusting 6 21.7
2019-Oct-15 14:37 109 0 gusting 4 21.1
2019-Oct-15 14:32 065 0 gusting 6 21.1
2019-Oct-15 14:27 057 1 gusting 6 21.1
2019-Oct-15 14:22 059 2 gusting 6 20.6
2019-Oct-15 14:17 107 2 gusting 6 20.6
2019-Oct-15 14:12 138 2 gusting 6 20.6
2019-Oct-15 14:07 077 2 gusting 6 20.6
2019-Oct-15 14:02 076 2 gusting 6 20.6
2019-Oct-15 13:57 115 2 gusting 6 20.6
2019-Oct-15 13:52 078 0 gusting 6 21.1
2019-Oct-15 13:47 215 1 gusting 6 20.6
2019-Oct-15 13:42 216 0 gusting 6 20.6
2019-Oct-15 13:37 186 0 gusting 7 20.6
2019-Oct-15 13:32 209 1 gusting 10 20.0
2019-Oct-15 13:27 123 4 gusting 10 20.0
2019-Oct-15 13:22 096 3 gusting 6 20.0
2019-Oct-15 13:17 134 2 gusting 6 20.0
2019-Oct-15 13:12 096 3 gusting 6 20.0
2019-Oct-15 13:07 127 2 gusting 6 20.0
2019-Oct-15 13:02 117 1 gusting 6 20.0
2019-Oct-15 12:57 107 20.0
2019-Oct-15 12:52 331 20.0
2019-Oct-15 12:47 243 0 gusting 6 20.0
2019-Oct-15 12:42 218 2 gusting 6 20.0
2019-Oct-15 12:37 116 2 gusting 6 20.0
2019-Oct-15 12:32 142 2 gusting 6 19.4
2019-Oct-15 12:27 152 1 gusting 4 19.4
2019-Oct-15 12:22 265 0 gusting 4 19.4
2019-Oct-15 12:17 090 0 gusting 6 19.4
2019-Oct-15 12:12 071 1 gusting 9 18.9
2019-Oct-15 12:07 076 3 gusting 9 18.9
2019-Oct-15 12:02 109 2 gusting 9 18.9
2019-Oct-15 11:57 143 2 gusting 6 18.9
2019-Oct-15 11:52 182 3 gusting 6 18.9
2019-Oct-15 11:47 121 1 gusting 5 19.4
2019-Oct-15 11:42 182 0 gusting 5 18.9
2019-Oct-15 11:37 085 1 gusting 5 18.9
2019-Oct-15 11:32 092 1 gusting 6 18.9
2019-Oct-15 11:27 079 1 gusting 6 18.9
2019-Oct-15 11:22 134 1 gusting 6 18.9
2019-Oct-15 11:17 081 1 gusting 5 18.9
2019-Oct-15 11:12 063 1 gusting 5 18.9
2019-Oct-15 11:07 147 1 gusting 5 18.3
2019-Oct-15 11:02 017 2 gusting 5 18.3
2019-Oct-15 10:57 094 1 gusting 6 18.3
2019-Oct-15 10:52 121 1 gusting 6 18.3
2019-Oct-15 10:47 125 2 gusting 6 18.3
2019-Oct-15 10:42 121 1 gusting 5 18.3
2019-Oct-15 10:37 138 1 gusting 6 18.3
2019-Oct-15 10:32 077 2 gusting 6 17.8
2019-Oct-15 10:27 098 2 gusting 6 17.8
2019-Oct-15 10:22 113 2 gusting 6 17.8
2019-Oct-15 10:17 085 1 gusting 4 17.8
2019-Oct-15 10:12 123 0 gusting 5 17.2
2019-Oct-15 10:07 091 1 gusting 5 17.2
2019-Oct-15 10:02 086 1 gusting 5 17.2
2019-Oct-15 09:57 137 1 gusting 4 17.2
2019-Oct-15 09:52 118 1 gusting 4 16.7
2019-Oct-15 09:47 095 1 gusting 4 16.7
2019-Oct-15 09:42 092 1 gusting 4 16.7
2019-Oct-15 09:37 068 1 gusting 4 16.7
2019-Oct-15 09:32 052 1 gusting 4 16.1
2019-Oct-15 09:27 061 1 gusting 4 16.1
2019-Oct-15 09:22 025 1 gusting 6 16.1
2019-Oct-15 09:17 073 2 gusting 6 15.6
2019-Oct-15 09:12 054 2 gusting 6 15.6
2019-Oct-15 09:07 046 1 gusting 6 15.6
2019-Oct-15 09:02 037 1 gusting 6 15.6
2019-Oct-15 08:57 009 1 gusting 6 15.6
2019-Oct-15 08:52 024 0 gusting 5 15.6
2019-Oct-15 08:47 009 0 gusting 5 15.0
2019-Oct-15 08:42 009 0 gusting 5 15.0
2019-Oct-15 08:37 009 0 gusting 4 14.4
2019-Oct-15 08:32 005 0 gusting 4 14.4
2019-Oct-15 08:27 009 0 gusting 4 13.9
2019-Oct-15 08:22 13.9
2019-Oct-15 08:17 321 0 gusting 2 13.3
2019-Oct-15 08:12 319 0 gusting 1 13.3
2019-Oct-15 08:07 13.3